This is the latest recevied weather packets stored in our database for station/object N5ZP. If no packets are shown the sender has not sent any weather packets the latest 10 day(s).
| Time | Temp. | Humidity | Pressure | Rain* | Wind** | Luminosity | Snow |
|---|---|---|---|---|---|---|---|
| 1777411275 | 26.67° C | 82% | 1005.4 hPa | 0 mm | - | 18 W/m² | - |
| 1777410974 | 26.67° C | 82% | 1004.9 hPa | 0 mm | - | 23 W/m² | - |
| 1777410674 | 26.67° C | 82% | 1005.8 hPa | 0 mm | - | 28 W/m² | - |
| 1777410369 | 26.67° C | 82% | 1006.1 hPa | 0 mm | - | 29 W/m² | - |
| 1777410063 | 27.22° C | 81% | 1005.4 hPa | 0 mm | - | 36 W/m² | - |
| 1777409763 | 27.22° C | 81% | 1005.6 hPa | 0 mm | - | 51 W/m² | - |
| 1777409459 | 27.22° C | 81% | 1005.8 hPa | 0 mm | - | 63 W/m² | - |
| 1777409155 | 27.22° C | 80% | 1006.3 hPa | 0 mm | - | 84 W/m² | - |
| 1777408851 | 27.22° C | 80% | 1006.6 hPa | 0 mm | - | 95 W/m² | - |
| 1777408547 | 27.78° C | 80% | 1006.1 hPa | 0 mm | - | 125 W/m² | - |
| 1777408247 | 27.22° C | 80% | 1006.6 hPa | 0 mm | - | 105 W/m² | - |
| 1777407943 | 27.22° C | 80% | 1006.3 hPa | 0 mm | - | 104 W/m² | - |
| 1777407641 | 27.22° C | 81% | 1006.3 hPa | 0 mm | - | 92 W/m² | - |
| 1777407340 | 27.78° C | 80% | 1006.4 hPa | 0 mm | - | 55 W/m² | - |
| 1777407035 | 27.78° C | 79% | 1006.1 hPa | 0 mm | - | 138 W/m² | - |
| 1777406731 | 27.78° C | 79% | 1006 hPa | 0 mm | - | 196 W/m² | - |
| 1777406426 | 28.33° C | 78% | 1005.9 hPa | 0 mm | - | 169 W/m² | - |
| 1777406125 | 28.89° C | 76% | 1006.5 hPa | 0 mm | - | 263 W/m² | - |
| 1777405822 | 28.89° C | 76% | 1006.3 hPa | 0 mm | - | 306 W/m² | - |
| 1777405518 | 28.33° C | 78% | 1006.6 hPa | 0 mm | - | 609 W/m² | - |
| 1777405216 | 28.89° C | 77% | 1006.4 hPa | 0 mm | - | 218 W/m² | - |
| 1777404913 | 28.89° C | 76% | 1006 hPa | 0 mm | - | 427 W/m² | - |
| 1777404610 | 28.89° C | 76% | 1006.1 hPa | 0 mm | - | 281 W/m² | - |
| 1777404307 | 28.89° C | 75% | 1006.5 hPa | 0 mm | - | 348 W/m² | - |
| 1777404003 | 30° C | 74% | 1006.5 hPa | 0 mm | - | 220 W/m² | - |
* Rain latest hour (hover to see other rain measurements)
** Current wind speed in m/s (hover to see current wind gust speed)